Stations météo

Publicité
Pau, France (7610): Température de l'air & dewpoint: 18.05.2017 11:00:00 - 24.05.2017 11:00:00 (CEST)Pau, France (7610): Température de l'air 5cm: 18.05.2017 11:00:00 - 24.05.2017 11:00:00 (CEST)Pau, France (7610): Température de l'air -20cm & Température de l'air -100cm: 18.05.2017 11:00:00 - 24.05.2017 11:00:00 (CEST)Pau, France (7610): Vitesse du vent & gusts: 18.05.2017 11:00:00 - 24.05.2017 11:00:00 (CEST)Pau, France (7610): Direction du vent: 18.05.2017 11:00:00 - 24.05.2017 11:00:00 (CEST)Pau, France (7610): reduced air pressure: 18.05.2017 11:00:00 - 24.05.2017 11:00:00 (CEST)Pau, France (7610): visibility: 18.05.2017 11:00:00 - 24.05.2017 11:00:00 (CEST)Pau, France (7610): Ensoleillement: 18.05.2017 11:00:00 - 24.05.2017 11:00:00 (CEST)Pau, France (7610): Quantités de précipitations: 18.05.2017 11:00:00 - 24.05.2017 11:00:00 (CEST)
Date & Time tt [°C] td [°C] tt 5cm [°C] tt -20cm [°C] tt -100cm [°C] ff [km/h] ff [knt] fx [km/h] fx [knt] dd ppp [hPa] vv [km] sd [min] rr [mm]
24.05.2017 11:00:00 21,5 14,9 28,8 17,1 14,6 7 4 15 8 ENE 1021,2 14 60 0,0
24.05.2017 10:00:00 20,0 15,0 25,1 17,1 14,6 3 2 11 6 E 1021,6 15 60 0,0
24.05.2017 09:00:00 17,1 13,6 18,9 17,2 14,6 3 2 7 4 SE 1022,2 14 60 0,0
24.05.2017 08:00:00 14,1 13,3 9,9 17,3 14,6 4 2 6 3 E 1022,2 7 60 0,0
24.05.2017 07:00:00 12,0 11,4 6,0 17,4 14,6 0 0 2 1 N 1022,5 0,5 4 0,0
24.05.2017 06:00:00 11,8 10,7 6,3 17,4 14,6 0 0 3 2 N 1022,4 4,4 0 0,2
24.05.2017 05:00:00 12,4 11,1 7,1 17,5 14,6 2 1 7 4 ENE 1022,6 0,7 0 0,0
24.05.2017 04:00:00 13,5 12,2 8,7 17,5 14,6 5 3 7 4 SE 1022,7 6 0 0,0
24.05.2017 03:00:00 14,5 12,0 10,7 17,5 14,6 2 1 8 4 SSW 1023,0 10 0 0,0
24.05.2017 02:00:00 15,7 13,0 12,5 17,6 14,6 9 5 18 10 ESE 1023,2 13 0 0,0
24.05.2017 01:00:00 15,3 12,6 10,2 17,6 14,6 5 3 7 4 SE 1023,7 13 0 0,0
24.05.2017 00:00:00 15,9 12,6 11,0 17,6 14,6 6 3 7 4 SE 1023,6 12 0 0,0
23.05.2017 23:00:00 16,2 12,9 10,7 17,5 14,6 2 1 6 4 NNE 1023,6 15 0 0,0
23.05.2017 22:00:00 17,8 12,9 13,5 17,4 14,6 6 3 13 7 N 1023,1 17 2 0,0
23.05.2017 21:00:00 19,7 12,9 18,2 17,4 14,5 9 5 13 7 N 1022,7 20 60 0,0
23.05.2017 20:00:00 20,9 13,1 22,8 17,3 14,5 6 4 13 7 N 1022,5 23 60 0,0
23.05.2017 19:00:00 21,4 12,8 24,0 17,2 14,5 6 3 12 6 NNE 1022,5 20 53 0,0
23.05.2017 18:00:00 21,7 13,1 23,5 17,1 14,5 8 4 15 8 NNW 1022,8 17 47 0,0
23.05.2017 17:00:00 20,5 11,9 25,2 17,1 14,6 6 4 16 9 N 1023,2 23 50 0,0
23.05.2017 16:00:00 20,4 11,6 24,7 17,1 14,5 4 2 14 7 NNE 1023,4 19 38 0,0
23.05.2017 15:00:00 19,3 11,3 28,0 17,0 14,5 6 3 14 8 NNW 1024,0 20 35 0,0
23.05.2017 14:00:00 19,0 11,1 23,7 17,1 14,5 4 2 11 6 SSW 1024,4 19 10 0,0
23.05.2017 13:00:00 16,9 10,5 20,2 17,1 14,5 3 1 17 9 NW 1025,1 20 0 0,0
23.05.2017 12:00:00 15,9 10,4 18,7 17,1 14,5 6 3 16 9 W 1025,2 20 0 0,0
23.05.2017 11:00:00 15,5 10,7 17,1 17,2 14,5 5 3 14 8 WNW 1025,1 20 0 0,0
23.05.2017 10:00:00 14,7 10,1 15,9 17,2 14,5 10 5 16 8 WNW 1025,1 12 0 0,0
23.05.2017 09:00:00 14,4 10,2 14,5 17,3 14,5 9 5 15 8 NW 1024,8 17 0 0,0
23.05.2017 08:00:00 13,9 10,3 13,5 17,3 14,5 5 3 13 7 WNW 1024,4 15 0 0,0
23.05.2017 07:00:00 13,7 10,5 13,4 17,4 14,5 6 3 16 9 WNW 1023,8 12 0 0,0
23.05.2017 06:00:00 13,7 10,7 13,4 17,4 14,5 8 4 20 11 WNW 1023,3 10 0 0,0
23.05.2017 05:00:00 13,8 11,0 13,6 17,5 14,5 11 6 18 10 NW 1023,3 9 0 0,0
23.05.2017 04:00:00 13,9 11,1 13,7 17,5 14,5 16 9 23 12 NW 1023,1 10 0 0,0
23.05.2017 03:00:00 13,9 11,2 13,8 17,5 14,5 13 7 22 12 WNW 1022,9 9 0 0,0
23.05.2017 02:00:00 14,1 11,3 13,9 17,5 14,5 14 7 24 13 NW 1022,9 9 0 0,0
23.05.2017 01:00:00 14,2 11,2 14,0 17,5 14,5 18 10 27 14 NW 1022,9 9 0 0,0
23.05.2017 00:00:00 14,6 11,6 14,4 17,5 14,5 13 7 24 13 WNW 1022,7 8 0 0,0
22.05.2017 23:00:00 14,6 11,7 14,5 17,5 14,5 13 7 23 13 WNW 1022,4 8 0 0,0
22.05.2017 22:00:00 14,9 11,9 14,8 17,5 14,5 18 10 29 15 WNW 1021,6 6 0 0,0
22.05.2017 21:00:00 15,5 12,4 15,5 17,3 14,5 22 12 30 16 W 1021,0 6 0 0,0
22.05.2017 20:00:00 16,2 13,1 16,7 17,2 14,5 20 11 36 20 W 1020,1 6 0 0,0
22.05.2017 19:00:00 17,5 13,4 19,2 17,1 14,5 26 14 35 19 WNW 1019,4 11 41 0,0
22.05.2017 18:00:00 20,6 14,5 25,5 16,9 14,5 24 13 34 18 WNW 1018,5 11 60 0,0
22.05.2017 17:00:00 22,9 15,7 30,0 16,8 14,5 22 12 37 20 WNW 1017,8 13 60 0,0
22.05.2017 16:00:00 24,3 15,2 29,9 16,6 14,5 24 13 37 20 W 1017,5 15 60 0,0
22.05.2017 15:00:00 25,3 16,2 32,9 16,5 14,5 21 11 32 18 NW 1017,0 17 60 0,0
22.05.2017 14:00:00 24,7 16,9 33,4 16,4 14,5 17 9 33 18 NW 1016,5 19 60 0,0
22.05.2017 13:00:00 25,0 15,0 33,6 16,4 14,5 20 11 35 19 NW 1016,3 23 60 0,0
22.05.2017 12:00:00 25,1 14,2 34,0 16,3 14,5 9 5 16 9 WNW 1015,7 28 60 0,0
22.05.2017 11:00:00 23,1 15,7 30,4 16,3 14,5 8 5 14 8 NW 1015,4 16 60 0,0
22.05.2017 10:00:00 22,8 14,1 25,9 16,4 14,5 3 1 8 4 WSW 1014,9 22 47 0,0
22.05.2017 09:00:00 20,9 15,0 20,3 16,4 14,5 4 2 8 5 SSE 1014,9 33 47 0,0
22.05.2017 08:00:00 17,7 13,6 13,9 16,4 14,5 6 3 14 8 SE 1014,7 51 8 0,0
22.05.2017 07:00:00 15,7 12,8 13,5 16,5 14,5 11 6 17 9 S 1014,1 31 0 0,2
22.05.2017 06:00:00 16,1 12,3 13,5 16,5 14,5 13 7 24 13 NNW 1013,2 31 0 0,0
22.05.2017 05:00:00 16,4 10,9 13,6 16,5 14,5 3 1 7 4 E 1011,6 33 0 0,0
22.05.2017 04:00:00 17,4 10,3 13,4 16,5 14,5 4 2 11 6 SE 1011,6 29 0 0,0
22.05.2017 03:00:00 17,0 10,6 13,3 16,5 14,5 7 4 8 5 SE 1011,7 33 0 0,0
22.05.2017 02:00:00 17,3 11,6 14,5 16,5 14,5 0 0 6 3 N 1012,1 31 0 0,0
22.05.2017 01:00:00 17,4 12,7 14,6 16,5 14,5 3 1 7 4 E 1012,6 31 0 0,0
22.05.2017 00:00:00 18,0 11,5 15,1 16,4 14,5 3 2 10 5 E 1012,7 29 0 0,0
21.05.2017 23:00:00 19,5 9,9 15,4 16,3 14,5 6 3 11 6 E 1013,1 29 0 0,0
21.05.2017 22:00:00 19,5 11,8 15,9 16,3 14,5 3 1 17 9 N 1013,5 22 0 0,0
21.05.2017 21:00:00 22,3 10,4 20,6 16,1 14,5 15 8 26 14 ESE 1013,1 23 0 0,0
21.05.2017 20:00:00 23,5 10,2 22,8 16,0 14,5 11 6 25 14 E 1013,4 22 1 0,0
21.05.2017 19:00:00 24,8 9,9 25,6 15,9 14,5 15 8 25 14 E 1014,1 12 26 0,0
21.05.2017 18:00:00 25,1 8,1 26,0 15,7 14,6 17 9 28 15 E 1014,7 10 46 0,0
21.05.2017 17:00:00 25,1 10,2 25,9 15,5 14,5 14 8 25 14 E 1015,1 11 41 0,0
21.05.2017 16:00:00 25,2 9,5 29,7 15,5 14,5 14 8 27 14 ESE 1016,1 12 60 0,0
21.05.2017 15:00:00 24,3 10,6 30,8 15,4 14,5 15 8 24 13 E 1017,0 14 60 0,0
21.05.2017 14:00:00 23,0 11,7 28,9 15,4 14,5 16 9 27 15 E 1017,8 16 60 0,0
21.05.2017 13:00:00 21,8 11,2 28,2 15,3 14,6 14 7 28 15 E 1018,6 18 60 0,0
21.05.2017 12:00:00 20,2 10,0 25,2 15,4 14,6 15 8 25 14 E 1019,4 19 60 0,0
21.05.2017 11:00:00 18,8 9,3 21,9 15,4 14,5 11 6 23 12 ESE 1020,2 20 38 0,0
21.05.2017 10:00:00 17,5 9,9 19,6 15,5 14,6 14 8 29 16 ESE 1020,1 21 60 0,0
21.05.2017 09:00:00 15,1 9,0 10,7 15,5 14,6 8 5 14 7 ESE 1021,1 24 52 0,0
21.05.2017 08:00:00 10,8 8,2 5,5 15,6 14,5 8 4 10 5 SE 1021,6 26 20 0,0
21.05.2017 07:00:00 8,9 7,0 4,5 15,7 14,6 4 2 8 4 SSE 1021,7 20 0 0,0
21.05.2017 06:00:00 8,7 7,3 3,3 15,8 14,6 4 2 6 4 SE 1021,9 23 0 0,0
21.05.2017 05:00:00 8,7 7,1 3,4 15,8 14,6 5 3 8 5 ENE 1022,4 27 0 0,0
21.05.2017 04:00:00 8,5 6,8 3,1 15,9 14,6 4 2 10 6 ESE 1023,0 32 0 0,0
21.05.2017 03:00:00 9,1 7,2 3,4 15,9 14,6 3 2 7 4 ESE 1023,7 40 0 0,0
21.05.2017 02:00:00 9,7 7,6 4,4 16,0 14,6 5 3 8 4 ESE 1024,2 40 0 0,0
21.05.2017 01:00:00 10,2 8,1 5,7 16,0 14,6 5 3 8 4 SE 1024,9 31 0 0,0
21.05.2017 00:00:00 11,1 8,7 6,9 15,9 14,6 7 4 10 5 SSE 1025,2 29 0 0,0
20.05.2017 23:00:00 12,0 8,8 8,6 15,9 14,6 4 2 6 3 E 1025,5 28 0 0,0
20.05.2017 22:00:00 13,6 8,2 8,1 15,8 14,6 4 2 8 4 NE 1025,4 32 0 0,0
20.05.2017 21:00:00 16,2 8,9 13,5 15,7 14,6 5 3 11 6 NNE 1025,2 35 46 0,0
20.05.2017 20:00:00 17,8 7,2 20,0 15,6 14,6 9 5 19 10 N 1024,8 14 60 0,0
20.05.2017 19:00:00 18,1 6,9 21,1 15,6 14,6 8 4 21 12 N 1024,9 14 60 0,0
20.05.2017 18:00:00 18,1 8,4 24,3 15,5 14,6 15 8 29 15 N 1025,1 15 60 0,0
20.05.2017 17:00:00 18,7 9,5 25,1 15,4 14,6 20 11 32 17 NNW 1025,0 17 60 0,0
20.05.2017 16:00:00 18,0 9,9 23,7 15,4 14,6 22 12 36 19 NW 1025,2 24 56 0,0
20.05.2017 15:00:00 18,3 10,4 19,5 15,4 14,6 19 10 36 20 WNW 1025,5 29 35 0,0
20.05.2017 14:00:00 16,4 9,8 17,0 15,4 14,6 17 9 29 16 W 1025,8 32 13 0,0
20.05.2017 13:00:00 15,0 9,8 16,5 15,4 14,6 14 8 31 17 WNW 1026,1 33 1 0,0
20.05.2017 12:00:00 14,4 9,6 15,5 15,5 14,6 21 11 36 19 W 1025,8 20 7 0,0
20.05.2017 11:00:00 13,6 10,4 12,3 15,5 14,6 23 12 39 21 WNW 1025,6 9 4 0,0
20.05.2017 10:00:00 11,9 10,1 12,4 15,5 14,6 26 14 41 22 WNW 1025,4 3,3 0 0,2
20.05.2017 09:00:00 12,5 9,1 10,7 15,6 14,6 10 6 16 9 W 1024,5 28 0 0,0
20.05.2017 08:00:00 10,6 7,8 8,9 15,7 14,6 3 2 10 5 WNW 1024,2 26 0 0,2
20.05.2017 07:00:00 9,5 6,9 8,1 15,7 14,6 3 2 8 4 SE 1023,5 26 0 0,0
20.05.2017 06:00:00 8,8 6,4 6,7 15,8 14,6 6 3 8 4 SSE 1023,2 34 0 0,0
20.05.2017 05:00:00 8,8 6,1 5,5 15,9 14,6 7 4 9 5 SE 1023,3 31 0 0,0
20.05.2017 04:00:00 8,1 6,1 5,5 15,9 14,6 4 2 6 3 ESE 1023,7 30 0 0,0
20.05.2017 03:00:00 8,8 5,9 6,6 16,0 14,6 4 2 10 5 SE 1023,9 38 0 0,0
20.05.2017 02:00:00 9,1 5,5 6,1 16,1 14,6 7 4 10 5 WSW 1024,0 44 0 0,0
20.05.2017 01:00:00 9,5 5,9 5,8 16,1 14,6 8 4 11 6 SW 1024,2 43 0 0,0
20.05.2017 00:00:00 10,4 6,0 7,3 16,1 14,6 6 3 13 7 SW 1024,2 43 0 0,0
19.05.2017 23:00:00 10,5 6,4 7,5 16,1 14,6 8 5 14 8 WSW 1024,3 41 0 0,0
19.05.2017 22:00:00 11,8 6,9 9,9 16,1 14,6 11 6 26 14 W 1023,8 37 0 0,0
19.05.2017 21:00:00 13,0 6,8 11,9 16,1 14,6 17 9 32 17 WNW 1023,4 43 50 0,0
19.05.2017 20:00:00 14,6 6,7 15,1 16,0 14,6 23 12 41 22 W 1022,8 32 55 0,0
19.05.2017 19:00:00 15,4 7,2 16,1 16,0 14,6 26 14 42 23 WNW 1022,6 39 35 0,0
19.05.2017 18:00:00 15,4 7,4 17,3 15,9 14,5 26 14 48 26 WNW 1022,3 28 53 0,0
19.05.2017 17:00:00 15,5 9,4 14,6 15,9 14,5 29 15 48 26 WNW 1021,9 23 34 0,0
19.05.2017 16:00:00 14,8 11,2 10,4 15,9 14,6 19 10 50 27 WNW 1022,2 11 14 1,8
19.05.2017 15:00:00 13,6 9,2 12,0 15,9 14,6 21 12 42 23 W 1022,1 10 19 0,6
19.05.2017 14:00:00 14,3 8,0 16,7 15,9 14,6 22 12 41 22 W 1021,7 14 25 0,0
19.05.2017 13:00:00 13,4 9,8 11,5 16,0 14,5 23 12 35 19 W 1021,7 10 20 0,2
19.05.2017 12:00:00 13,4 9,6 12,0 16,0 14,5 18 10 33 18 W 1021,8 20 8 0,2
19.05.2017 11:00:00 12,3 8,4 10,7 16,1 14,6 13 7 22 12 WSW 1021,8 35 10 0,0
19.05.2017 10:00:00 10,5 8,1 10,2 16,2 14,5 16 9 29 16 W 1021,9 20 1 0,2
19.05.2017 09:00:00 10,3 7,9 9,5 16,2 14,5 9 5 14 7 SW 1021,5 39 3 0,2
19.05.2017 08:00:00 9,8 8,1 8,7 16,3 14,5 7 4 11 6 SW 1021,3 11 1 0,4
19.05.2017 07:00:00 9,1 7,9 8,4 16,4 14,5 4 2 9 5 NNW 1020,7 9 0 0,6
19.05.2017 06:00:00 8,9 7,8 8,6 16,5 14,5 8 4 20 11 W 1020,4 5 0 1,4
19.05.2017 05:00:00 9,1 7,9 8,0 16,5 14,5 12 6 22 12 WSW 1020,3 11 0 0,2
19.05.2017 04:00:00 9,3 8,1 8,6 16,6 14,5 16 9 34 19 WSW 1020,2 46 0 1,4
19.05.2017 03:00:00 9,3 7,9 7,6 16,7 14,5 8 4 14 7 WSW 1020,5 53 0 0,0
19.05.2017 02:00:00 9,5 8,1 8,4 16,8 14,5 9 5 16 9 SW 1020,4 47 0 0,0
19.05.2017 01:00:00 10,0 8,6 9,5 16,9 14,5 9 5 18 10 SW 1020,8 27 0 0,0
19.05.2017 00:00:00 9,9 8,2 9,2 16,9 14,5 8 5 18 10 SW 1021,0 47 0 0,0
18.05.2017 23:00:00 9,8 8,1 9,1 17,0 14,5 11 6 20 11 SW 1021,0 45 0 0,0
18.05.2017 22:00:00 9,8 7,4 8,5 17,1 14,4 9 5 16 8 SW 1020,7 46 0 0,0
18.05.2017 21:00:00 10,0 7,2 8,8 17,2 14,4 9 5 20 11 SSW 1020,2 51 23 0,0
18.05.2017 20:00:00 9,5 7,6 8,8 17,2 14,5 14 8 25 14 S 1019,9 24 0 1,5
18.05.2017 19:00:00 9,5 7,9 9,1 17,3 14,4 11 6 24 13 SW 1020,0 12 0 1,0
18.05.2017 18:00:00 10,4 8,8 10,4 17,3 14,4 15 8 23 12 SW 1019,4 12 0 1,2
18.05.2017 17:00:00 10,6 9,2 10,5 17,4 14,4 11 6 27 14 W 1019,1 10 0 1,8
18.05.2017 16:00:00 10,5 9,1 10,7 17,5 14,4 17 9 32 17 W 1019,1 12 0 1,4
18.05.2017 15:00:00 11,0 9,3 11,0 17,5 14,4 21 11 - - W 1018,5 13 - -
18.05.2017 14:00:00 11,0 9,4 - 17,7 14,4 21 11 - - W 1018,3 7 - -
18.05.2017 13:00:00 11,7 10,3 11,8 17,7 14,4 19 11 46 25 WNW 1017,6 8 0 2,2
18.05.2017 12:00:00 12,0 10,7 11,6 17,7 14,3 29 16 53 29 WNW 1016,8 4,4 0 2,6
18.05.2017 11:00:00 13,6 12,2 13,2 17,8 14,3 30 16 49 26 WNW 1015,0 14 0 3,9

tt = Température de l'air
td = dewpoint
tt 5cm = Température de l'air 5cm
tt -20cm = Température de l'air -20cm
tt -100cm = Température de l'air -100cm
ff = Vitesse du vent
fx = gusts
dd = Direction du vent
ppp = reduced air pressure
vv = visibility
sd = Ensoleillement
rr = Quantités de précipitations

stations d'obs. à proximité